| time (UTC) | temp C | wind direction | speed KPH | gust KPH | rain 1hr cm | rain 24hr cm | rain mn cm | humidity % | barometer mb |
| 20260906201004 | 18 | 192 | 4.8 | 12.9 | 0.00 | 0.03 | 0.03 | 74 | 1016.5 |
| 20260906200504 | 18 | 119 | 8.0 | 12.9 | 0.00 | 0.03 | 0.03 | 75 | 1016.5 |
| 20260906200004 | 18 | 188 | 4.8 | 9.7 | 0.00 | 0.03 | 0.03 | 76 | 1016.6 |
| 20260906195505 | 17 | 200 | 4.8 | 9.7 | 0.00 | 0.03 | 0.03 | 77 | 1016.6 |
| 20260906194504 | 17 | 198 | 4.8 | 9.7 | 0.00 | 0.03 | 0.03 | 79 | 1016.7 |
| 20260906194005 | 17 | 90 | 1.6 | 3.2 | 0.00 | 0.03 | 0.03 | 79 | 1016.7 |
| 20260906193505 | 16 | 83 | 3.2 | 4.8 | 0.00 | 0.03 | 0.03 | 81 | 1016.7 |
| 20260906193005 | 16 | 138 | 3.2 | 8.0 | 0.00 | 0.03 | 0.03 | 79 | 1016.7 |
| 20260906192505 | 16 | 36 | 3.2 | 8.0 | 0.00 | 0.03 | 0.03 | 81 | 1016.8 |
| 20260906191505 | 17 | 123 | 3.2 | 8.0 | 0.00 | 0.03 | 0.03 | 80 | 1016.9 |
| 20260906191005 | 16 | 146 | 1.6 | 3.2 | 0.00 | 0.03 | 0.03 | 80 | 1016.9 |
| 20260906190505 | 16 | 350 | 1.6 | 3.2 | 0.00 | 0.03 | 0.03 | 79 | 1016.9 |
| 20260906190005 | 16 | 153 | 3.2 | 9.7 | 0.00 | 0.03 | 0.03 | 81 | 1016.9 |
| 20260906185505 | 16 | 128 | 6.4 | 8.0 | 0.00 | 0.03 | 0.03 | 82 | 1016.9 |
| 20260906185005 | 16 | 99 | 3.2 | 4.8 | 0.00 | 0.03 | 0.03 | 83 | 1016.9 |
| 20260906184504 | 16 | 121 | 3.2 | 8.0 | 0.00 | 0.03 | 0.03 | 84 | 1016.9 |
| 20260906184004 | 15 | 83 | 3.2 | 4.8 | 0.00 | 0.03 | 0.03 | 84 | 1016.9 |
| 20260906183504 | 15 | 115 | 3.2 | 4.8 | 0.00 | 0.03 | 0.03 | 85 | 1016.9 |
| 20260906183004 | 15 | 172 | 3.2 | 4.8 | 0.00 | 0.03 | 0.03 | 86 | 1016.9 |
| 20260906182504 | 15 | 179 | 1.6 | 3.2 | 0.00 | 0.03 | 0.03 | 86 | 1017.0 |
| 20260906182005 | 15 | 96 | 3.2 | 4.8 | 0.00 | 0.03 | 0.03 | 86 | 1017.0 |
| 20260906181504 | 15 | 124 | 3.2 | 4.8 | 0.00 | 0.03 | 0.03 | 87 | 1016.9 |
| 20260906175505 | 15 | 109 | 1.6 | 3.2 | 0.00 | 0.03 | 0.03 | 88 | 1016.8 |
| 20260906175004 | 15 | 0 | 1.6 | 3.2 | 0.00 | 0.03 | 0.03 | 88 | 1016.8 |
| 20260906174505 | 15 | 10 | 1.6 | 3.2 | 0.00 | 0.03 | 0.03 | 88 | 1016.8 |
| 20260906174004 | 15 | 331 | 1.6 | 3.2 | 0.00 | 0.03 | 0.03 | 88 | 1016.7 |
| 20260906173505 | 15 | 334 | 1.6 | 3.2 | 0.00 | 0.03 | 0.03 | 88 | 1016.7 |
| 20260906173004 | 14 | 344 | 1.6 | 3.2 | 0.00 | 0.03 | 0.03 | 88 | 1016.6 |
| 20260906172504 | 14 | 344 | 1.6 | 3.2 | 0.00 | 0.03 | 0.03 | 88 | 1016.5 |
| 20260906172004 | 14 | 317 | 1.6 | 3.2 | 0.00 | 0.03 | 0.03 | 89 | 1016.5 |
| 20260906171004 | 14 | 335 | 3.2 | 3.2 | 0.00 | 0.03 | 0.03 | 89 | 1016.5 |
| 20260906170504 | 14 | 319 | 1.6 | 3.2 | 0.00 | 0.03 | 0.03 | 89 | 1016.6 |
| 20260906165504 | 14 | 344 | 1.6 | 3.2 | 0.00 | 0.03 | 0.03 | 89 | 1016.4 |
| 20260906165004 | 14 | 346 | 1.6 | 3.2 | 0.00 | 0.03 | 0.03 | 89 | 1016.4 |
| 20260906164504 | 14 | 343 | 1.6 | 3.2 | 0.00 | 0.03 | 0.03 | 89 | 1016.4 |
| 20260906164005 | 14 | 11 | 1.6 | 4.8 | 0.00 | 0.03 | 0.03 | 89 | 1016.3 |
| 20260906163505 | 14 | 252 | 0.0 | 3.2 | 0.00 | 0.03 | 0.03 | 89 | 1016.2 |
| 20260906163009 | 14 | 252 | 0.0 | 0.0 | 0.00 | 0.03 | 0.03 | 89 | 1016.1 |
| 20260906162504 | 13 | 252 | 0.0 | 3.2 | 0.00 | 0.03 | 0.03 | 89 | 1016.2 |
| 20260906162004 | 13 | 252 | 1.6 | 3.2 | 0.00 | 0.03 | 0.03 | 89 | 1016.2 |
| 20260906161504 | 13 | 223 | 1.6 | 3.2 | 0.00 | 0.03 | 0.03 | 89 | 1016.2 |
| 20260906161005 | 13 | 223 | 1.6 | 3.2 | 0.00 | 0.03 | 0.03 | 89 | 1016.2 |
| 20260906160504 | 13 | 223 | 0.0 | 3.2 | 0.00 | 0.03 | 0.03 | 89 | 1016.2 |
| 20260906160005 | 13 | 223 | 1.6 | 3.2 | 0.00 | 0.03 | 0.03 | 89 | 1016.1 |
| 20260906155504 | 13 | 223 | 1.6 | 3.2 | 0.00 | 0.03 | 0.03 | 89 | 1016.2 |
| 20260906155004 | 13 | 223 | 0.0 | 3.2 | 0.00 | 0.03 | 0.03 | 89 | 1016.2 |
| 20260906154504 | 13 | 223 | 0.0 | 3.2 | 0.00 | 0.03 | 0.03 | 89 | 1016.2 |
| 20260906153504 | 13 | 223 | 1.6 | 3.2 | 0.00 | 0.03 | 0.03 | 89 | 1016.1 |
| 20260906153005 | 13 | 223 | 1.6 | 3.2 | 0.00 | 0.03 | 0.03 | 89 | 1016.0 |
| 20260906152005 | 13 | 226 | 1.6 | 3.2 | 0.03 | 0.03 | 0.03 | 89 | 1016.0 |
| 20260906151505 | 13 | 209 | 1.6 | 3.2 | 0.03 | 0.03 | 0.03 | 89 | 1016.0 |
| 20260906150504 | 13 | 225 | 1.6 | 4.8 | 0.03 | 0.03 | 0.03 | 89 | 1015.9 |
| 20260906145505 | 13 | 204 | 3.2 | 4.8 | 0.03 | 0.03 | 0.03 | 89 | 1015.9 |
| 20260906145005 | 13 | 182 | 1.6 | 3.2 | 0.03 | 0.03 | 0.03 | 89 | 1015.9 |
| 20260906144505 | 13 | 182 | 3.2 | 4.8 | 0.03 | 0.03 | 0.03 | 89 | 1015.8 |
| 20260906143504 | 13 | 200 | 1.6 | 3.2 | 0.03 | 0.03 | 0.03 | 88 | 1015.7 |
| 20260906143005 | 13 | 217 | 1.6 | 3.2 | 0.03 | 0.03 | 0.03 | 88 | 1015.7 |
| 20260906142005 | 13 | 138 | 1.6 | 4.8 | 0.00 | 0.00 | 0.00 | 88 | 1015.7 |
| 20260906141005 | 13 | 128 | 1.6 | 3.2 | 0.00 | 0.00 | 0.00 | 88 | 1015.5 |
| 20260906140504 | 13 | 174 | 0.0 | 3.2 | 0.00 | 0.00 | 0.00 | 88 | 1015.4 |
| 20260906135504 | 13 | 174 | 1.6 | 1.6 | 0.00 | 0.00 | 0.00 | 88 | 1015.3 |
| 20260906135004 | 13 | 174 | 1.6 | 1.6 | 0.00 | 0.00 | 0.00 | 88 | 1015.3 |
| 20260906134505 | 13 | 174 | 0.0 | 3.2 | 0.00 | 0.00 | 0.00 | 88 | 1015.3 |
| 20260906134004 | 13 | 174 | 0.0 | 3.2 | 0.00 | 0.00 | 0.00 | 88 | 1015.2 |
| 20260906133504 | 13 | 174 | 1.6 | 1.6 | 0.00 | 0.00 | 0.00 | 88 | 1015.2 |
| 20260906133005 | 13 | 170 | 0.0 | 1.6 | 0.00 | 0.00 | 0.00 | 87 | 1015.2 |
| 20260906132505 | 13 | 170 | 0.0 | 0.0 | 0.00 | 0.00 | 0.00 | 87 | 1015.2 |
| 20260906132004 | 13 | 170 | 0.0 | 3.2 | 0.00 | 0.00 | 0.00 | 87 | 1015.2 |
| 20260906131504 | 13 | 170 | 0.0 | 3.2 | 0.00 | 0.00 | 0.00 | 87 | 1015.2 |
| 20260906131004 | 13 | 170 | 1.6 | 1.6 | 0.00 | 0.00 | 0.00 | 87 | 1015.2 |
| 20260906130504 | 13 | 157 | 0.0 | 0.0 | 0.00 | 0.00 | 0.00 | 87 | 1015.2 |
| 20260906130004 | 13 | 157 | 0.0 | 0.0 | 0.00 | 0.00 | 0.00 | 87 | 1015.1 |
| 20260906125504 | 13 | 157 | 0.0 | 0.0 | 0.00 | 0.00 | 0.00 | 87 | 1015.2 |
| 20260906125004 | 13 | 157 | 0.0 | 0.0 | 0.00 | 0.00 | 0.00 | 87 | 1015.1 |
| 20260906124004 | 13 | 157 | 0.0 | 0.0 | 0.00 | 0.00 | 0.00 | 87 | 1015.2 |
| 20260906123504 | 13 | 157 | 0.0 | 0.0 | 0.00 | 0.00 | 0.00 | 87 | 1015.2 |
| 20260906123005 | 13 | 157 | 0.0 | 0.0 | 0.00 | 0.00 | 0.00 | 87 | 1015.3 |
| 20260906122504 | 13 | 157 | 0.0 | 0.0 | 0.00 | 0.00 | 0.00 | 87 | 1015.4 |
| 20260906122004 | 13 | 157 | 0.0 | 0.0 | 0.00 | 0.00 | 0.00 | 87 | 1015.4 |
| 20260906121504 | 13 | 157 | 0.0 | 0.0 | 0.00 | 0.00 | 0.00 | 87 | 1015.4 |
| 20260906121005 | 13 | 157 | 0.0 | 0.0 | 0.00 | 0.00 | 0.00 | 87 | 1015.4 |
| 20260906120505 | 13 | 157 | 0.0 | 0.0 | 0.00 | 0.00 | 0.00 | 87 | 1015.4 |
| 20260906120004 | 13 | 157 | 0.0 | 0.0 | 0.00 | 0.00 | 0.00 | 87 | 1015.5 |
| 20260906115504 | 13 | 157 | 0.0 | 0.0 | 0.00 | 0.00 | 0.00 | 87 | 1015.4 |
| 20260906115004 | 13 | 157 | 0.0 | 0.0 | 0.00 | 0.00 | 0.00 | 86 | 1015.4 |
| 20260906114505 | 13 | 157 | 0.0 | 0.0 | 0.00 | 0.00 | 0.00 | 86 | 1015.4 |
| 20260906114004 | 13 | 157 | 0.0 | 0.0 | 0.00 | 0.00 | 0.00 | 86 | 1015.3 |
| 20260906113504 | 13 | 157 | 0.0 | 0.0 | 0.00 | 0.00 | 0.00 | 86 | 1015.3 |
| 20260906113004 | 13 | 157 | 0.0 | 0.0 | 0.00 | 0.00 | 0.00 | 86 | 1015.3 |
| 20260906112505 | 13 | 157 | 0.0 | 0.0 | 0.00 | 0.00 | 0.00 | 86 | 1015.3 |
| 20260906112004 | 13 | 157 | 0.0 | 0.0 | 0.00 | 0.00 | 0.00 | 86 | 1015.2 |
| 20260906111504 | 13 | 157 | 0.0 | 0.0 | 0.00 | 0.00 | 0.00 | 86 | 1015.3 |
| 20260906111005 | 13 | 157 | 0.0 | 0.0 | 0.00 | 0.00 | 0.00 | 86 | 1015.3 |
| 20260906110004 | 14 | 157 | 0.0 | 3.2 | 0.00 | 0.00 | 0.00 | 86 | 1015.4 |
| 20260906105505 | 14 | 105 | 0.0 | 1.6 | 0.00 | 0.00 | 0.00 | 85 | 1015.3 |
| 20260906105004 | 14 | 0 | 0.0 | 0.0 | 0.00 | 0.00 | 0.00 | 85 | 1015.3 |
| 20260906104004 | 14 | 0 | 0.0 | 3.2 | 0.00 | 0.00 | 0.00 | 85 | 1015.2 |
| 20260906103504 | 14 | 0 | 0.0 | 1.6 | 0.00 | 0.00 | 0.00 | 85 | 1015.2 |
| 20260906103004 | 14 | 158 | 1.6 | 1.6 | 0.00 | 0.00 | 0.00 | 84 | 1015.1 |
| 20260906102504 | 14 | 99 | 1.6 | 1.6 | 0.00 | 0.00 | 0.00 | 84 | 1015.0 |
| 20260906102004 | 14 | 37 | 0.0 | 3.2 | 0.00 | 0.00 | 0.00 | 84 | 1015.1 |
| 20260906101504 | 15 | 87 | 3.2 | 4.8 | 0.00 | 0.00 | 0.00 | 83 | 1015.1 |
| 20260906101004 | 15 | 108 | 1.6 | 3.2 | 0.00 | 0.00 | 0.00 | 83 | 1015.0 |
| 20260906100505 | 15 | 142 | 1.6 | 3.2 | 0.00 | 0.00 | 0.00 | 83 | 1015.0 |
| 20260906100004 | 15 | 148 | 0.0 | 0.0 | 0.00 | 0.00 | 0.00 | 83 | 1014.9 |
| 20260906095503 | 15 | 148 | 0.0 | 3.2 | 0.00 | 0.00 | 0.00 | 82 | 1015.0 |
| 20260906094505 | 15 | 146 | 0.0 | 3.2 | 0.00 | 0.00 | 0.00 | 82 | 1015.1 |
| 20260906094004 | 15 | 119 | 3.2 | 3.2 | 0.00 | 0.00 | 0.00 | 82 | 1015.0 |
| 20260906093504 | 15 | 111 | 1.6 | 3.2 | 0.00 | 0.00 | 0.00 | 82 | 1015.0 |
| 20260906093004 | 15 | 156 | 0.0 | 3.2 | 0.00 | 0.00 | 0.00 | 82 | 1014.9 |
| 20260906092504 | 15 | 156 | 1.6 | 1.6 | 0.00 | 0.00 | 0.00 | 82 | 1014.9 |
| 20260906092004 | 15 | 146 | 1.6 | 3.2 | 0.00 | 0.00 | 0.00 | 82 | 1015.0 |
| 20260906091504 | 15 | 146 | 0.0 | 3.2 | 0.00 | 0.00 | 0.00 | 81 | 1014.9 |
| 20260906091004 | 15 | 146 | 1.6 | 3.2 | 0.00 | 0.00 | 0.00 | 81 | 1014.8 |
| 20260906090504 | 15 | 146 | 1.6 | 3.2 | 0.00 | 0.00 | 0.00 | 81 | 1014.8 |
| 20260906090004 | 15 | 159 | 1.6 | 3.2 | 0.00 | 0.00 | 0.00 | 81 | 1014.9 |
| 20260906085504 | 15 | 163 | 1.6 | 3.2 | 0.00 | 0.00 | 0.00 | 81 | 1014.9 |
| 20260906084504 | 15 | 193 | 1.6 | 3.2 | 0.00 | 0.00 | 0.00 | 80 | 1014.9 |
| 20260906084004 | 15 | 193 | 1.6 | 3.2 | 0.00 | 0.00 | 0.00 | 80 | 1014.9 |
| 20260906083004 | 15 | 133 | 3.2 | 4.8 | 0.00 | 0.00 | 0.00 | 79 | 1014.9 |
| 20260906082504 | 15 | 123 | 4.8 | 4.8 | 0.00 | 0.00 | 0.00 | 79 | 1014.9 |
| 20260906082004 | 15 | 49 | 1.6 | 3.2 | 0.00 | 0.00 | 0.00 | 78 | 1014.8 |
| 20260906081505 | 15 | 329 | 1.6 | 3.2 | 0.00 | 0.00 | 0.00 | 78 | 1014.8 |
| 20260906081004 | 15 | 197 | 0.0 | 3.2 | 0.00 | 0.00 | 0.00 | 79 | 1014.9 |
| 20260906080504 | 15 | 195 | 1.6 | 3.2 | 0.00 | 0.00 | 0.00 | 78 | 1014.9 |
| 20260906080004 | 16 | 157 | 1.6 | 3.2 | 0.00 | 0.00 | 0.00 | 78 | 1015.0 |
| 20260906075504 | 16 | 174 | 0.0 | 3.2 | 0.00 | 0.00 | 0.00 | 78 | 1015.0 |
| 20260906074504 | 16 | 157 | 1.6 | 3.2 | 0.00 | 0.00 | 0.00 | 76 | 1015.1 |
| 20260906073504 | 16 | 120 | 1.6 | 3.2 | 0.00 | 0.00 | 0.00 | 75 | 1015.2 |
| 20260906073004 | 16 | 231 | 1.6 | 1.6 | 0.00 | 0.00 | 0.00 | 75 | 1015.2 |
| 20260906072504 | 16 | 317 | 0.0 | 3.2 | 0.00 | 0.00 | 0.00 | 75 | 1015.2 |
| 20260906072004 | 16 | 317 | 1.6 | 3.2 | 0.00 | 0.00 | 0.00 | 75 | 1015.3 |
| 20260906071504 | 16 | 336 | 1.6 | 3.2 | 0.00 | 0.00 | 0.00 | 75 | 1015.3 |
| 20260906071004 | 16 | 336 | 0.0 | 3.2 | 0.00 | 0.00 | 0.00 | 74 | 1015.3 |
| 20260906070504 | 16 | 38 | 1.6 | 3.2 | 0.00 | 0.00 | 0.00 | 74 | 1015.4 |
| 20260906070004 | 16 | 74 | 1.6 | 4.8 | 0.00 | 0.00 | 0.00 | 74 | 1015.4 |
| 20260906065504 | 16 | 339 | 1.6 | 4.8 | 0.00 | 0.00 | 0.00 | 74 | 1015.4 |
| 20260906065004 | 16 | 329 | 3.2 | 4.8 | 0.00 | 0.00 | 0.00 | 74 | 1015.2 |
| 20260906064504 | 16 | 338 | 3.2 | 4.8 | 0.00 | 0.00 | 0.00 | 74 | 1015.3 |
| 20260906064004 | 16 | 332 | 3.2 | 8.0 | 0.00 | 0.00 | 0.00 | 74 | 1015.3 |
| 20260906063504 | 16 | 321 | 3.2 | 4.8 | 0.00 | 0.00 | 0.00 | 74 | 1015.2 |
| 20260906063004 | 16 | 319 | 3.2 | 8.0 | 0.00 | 0.00 | 0.00 | 74 | 1015.2 |
| 20260906062503 | 16 | 323 | 4.8 | 8.0 | 0.00 | 0.00 | 0.00 | 74 | 1015.2 |
| 20260906062004 | 16 | 339 | 4.8 | 8.0 | 0.00 | 0.00 | 0.00 | 74 | 1015.2 |
| 20260906061005 | 16 | 330 | 4.8 | 8.0 | 0.00 | 0.00 | 0.00 | 75 | 1015.1 |
| 20260906060004 | 16 | 327 | 4.8 | 14.5 | 0.00 | 0.00 | 0.00 | 75 | 1015.3 |
| 20260906055503 | 16 | 330 | 4.8 | 8.0 | 0.00 | 0.00 | 0.00 | 75 | 1015.2 |
| 20260906055004 | 16 | 328 | 4.8 | 8.0 | 0.00 | 0.00 | 0.00 | 75 | 1015.3 |
| 20260906054504 | 16 | 330 | 6.4 | 11.3 | 0.00 | 0.00 | 0.00 | 74 | 1015.3 |
| 20260906054004 | 16 | 0 | 6.4 | 9.7 | 0.00 | 0.00 | 0.00 | 74 | 1015.3 |
| 20260906053504 | 16 | 354 | 3.2 | 9.7 | 0.00 | 0.00 | 0.00 | 74 | 1015.3 |
| 20260906052503 | 16 | 325 | 4.8 | 9.7 | 0.00 | 0.00 | 0.00 | 74 | 1015.4 |
| 20260906051004 | 17 | 332 | 4.8 | 8.0 | 0.00 | 0.00 | 0.00 | 74 | 1015.5 |
| 20260906050004 | 17 | 336 | 4.8 | 9.7 | 0.00 | 0.00 | 0.00 | 74 | 1015.6 |
| 20260906045503 | 17 | 334 | 4.8 | 9.7 | 0.00 | 0.00 | 0.00 | 73 | 1015.6 |
| 20260906044504 | 17 | 327 | 6.4 | 9.7 | 0.00 | 0.00 | 0.00 | 73 | 1015.7 |
| 20260906044004 | 17 | 329 | 4.8 | 9.7 | 0.00 | 0.00 | 0.00 | 73 | 1015.7 |
| 20260906043504 | 17 | 330 | 4.8 | 8.0 | 0.00 | 0.00 | 0.00 | 72 | 1015.8 |
| 20260906043004 | 17 | 320 | 4.8 | 12.9 | 0.00 | 0.00 | 0.00 | 72 | 1015.8 |
| 20260906042504 | 17 | 322 | 4.8 | 9.7 | 0.00 | 0.00 | 0.00 | 72 | 1015.7 |
| 20260906042004 | 17 | 334 | 4.8 | 12.9 | 0.00 | 0.00 | 0.00 | 72 | 1015.7 |
| 20260906041504 | 17 | 333 | 4.8 | 8.0 | 0.00 | 0.00 | 0.00 | 72 | 1015.7 |
| 20260906041004 | 17 | 338 | 4.8 | 8.0 | 0.00 | 0.00 | 0.00 | 72 | 1015.7 |
| 20260906040503 | 17 | 331 | 4.8 | 9.7 | 0.00 | 0.00 | 0.00 | 72 | 1015.7 |
| 20260906040004 | 17 | 327 | 4.8 | 9.7 | 0.00 | 0.00 | 0.00 | 72 | 1015.6 |
| 20260906035504 | 17 | 329 | 4.8 | 9.7 | 0.00 | 0.00 | 0.00 | 72 | 1015.6 |
| 20260906035004 | 17 | 329 | 4.8 | 9.7 | 0.00 | 0.00 | 0.00 | 71 | 1015.6 |
| 20260906034505 | 17 | 320 | 6.4 | 9.7 | 0.00 | 0.00 | 0.00 | 71 | 1015.6 |
| 20260906033504 | 17 | 329 | 3.2 | 8.0 | 0.00 | 0.00 | 0.00 | 71 | 1015.6 |
| 20260906033004 | 17 | 330 | 3.2 | 8.0 | 0.00 | 0.00 | 0.00 | 70 | 1015.5 |
| 20260906032504 | 17 | 326 | 4.8 | 9.7 | 0.00 | 0.00 | 0.00 | 70 | 1015.5 |
| 20260906032004 | 17 | 330 | 3.2 | 4.8 | 0.00 | 0.00 | 0.00 | 71 | 1015.5 |
| 20260906031504 | 17 | 340 | 1.6 | 3.2 | 0.00 | 0.00 | 0.00 | 71 | 1015.3 |
| 20260906031004 | 17 | 268 | 1.6 | 3.2 | 0.00 | 0.00 | 0.00 | 71 | 1015.3 |
| 20260906030004 | 18 | 7 | 1.6 | 3.2 | 0.00 | 0.00 | 0.00 | 69 | 1015.3 |
| 20260906025504 | 18 | 9 | 0.0 | 3.2 | 0.00 | 0.00 | 0.00 | 69 | 1015.4 |
| 20260906025004 | 18 | 7 | 1.6 | 3.2 | 0.00 | 0.00 | 0.00 | 67 | 1015.3 |
| 20260906024004 | 18 | 6 | 1.6 | 3.2 | 0.00 | 0.00 | 0.00 | 66 | 1015.4 |
| 20260906023504 | 18 | 5 | 0.0 | 3.2 | 0.00 | 0.00 | 0.00 | 66 | 1015.4 |
| 20260906023004 | 19 | 9 | 0.0 | 1.6 | 0.00 | 0.00 | 0.00 | 65 | 1015.3 |
| 20260906022503 | 19 | 9 | 0.0 | 3.2 | 0.00 | 0.00 | 0.00 | 65 | 1015.3 |
| 20260906022004 | 20 | 6 | 0.0 | 1.6 | 0.00 | 0.00 | 0.00 | 63 | 1015.3 |
| 20260906021004 | 20 | 5 | 0.0 | 3.2 | 0.00 | 0.00 | 0.00 | 60 | 1015.4 |
| 20260906020505 | 21 | 9 | 0.0 | 3.2 | 0.00 | 0.00 | 0.00 | 59 | 1015.3 |
| 20260906020004 | 21 | 6 | 0.0 | 3.2 | 0.00 | 0.00 | 0.00 | 58 | 1015.4 |
| 20260906015504 | 21 | 5 | 0.0 | 3.2 | 0.00 | 0.00 | 0.00 | 56 | 1015.4 |
| 20260906015004 | 21 | 9 | 0.0 | 3.2 | 0.00 | 0.00 | 0.00 | 56 | 1015.4 |
| 20260906014503 | 21 | 6 | 1.6 | 1.6 | 0.00 | 0.00 | 0.00 | 57 | 1015.4 |
| 20260906014004 | 21 | 6 | 1.6 | 3.2 | 0.00 | 0.00 | 0.00 | 57 | 1015.5 |
| 20260906013504 | 21 | 5 | 0.0 | 1.6 | 0.00 | 0.00 | 0.00 | 56 | 1015.4 |
| 20260906013004 | 21 | 0 | 1.6 | 1.6 | 0.00 | 0.00 | 0.00 | 55 | 1015.4 |
| 20260906012004 | 21 | 329 | 1.6 | 3.2 | 0.00 | 0.00 | 0.00 | 56 | 1015.4 |
| 20260906011504 | 21 | 34 | 1.6 | 3.2 | 0.00 | 0.00 | 0.00 | 58 | 1015.4 |
| 20260906011004 | 21 | 324 | 1.6 | 3.2 | 0.00 | 0.00 | 0.00 | 57 | 1015.5 |
| 20260906010505 | 21 | 76 | 3.2 | 4.8 | 0.00 | 0.00 | 0.00 | 58 | 1015.4 |
| 20260906010005 | 21 | 2 | 1.6 | 3.2 | 0.00 | 0.00 | 0.00 | 55 | 1015.5 |
| 20260906005506 | 21 | 72 | 8.0 | 11.3 | 0.00 | 0.00 | 0.00 | 55 | 1015.5 |
| 20260906005005 | 21 | 62 | 4.8 | 11.3 | 0.00 | 0.00 | 0.00 | 56 | 1015.5 |
| 20260906004505 | 21 | 67 | 4.8 | 9.7 | 0.00 | 0.00 | 0.00 | 56 | 1015.5 |
| 20260906004005 | 22 | 75 | 4.8 | 11.3 | 0.00 | 0.00 | 0.00 | 57 | 1015.5 |
| 20260906003505 | 22 | 66 | 4.8 | 9.7 | 0.00 | 0.00 | 0.00 | 56 | 1015.5 |
| 20260906002505 | 22 | 86 | 6.4 | 9.7 | 0.00 | 0.00 | 0.00 | 54 | 1015.5 |
| 20260906002005 | 22 | 89 | 9.7 | 12.9 | 0.00 | 0.00 | 0.00 | 50 | 1015.4 |
| 20260906001505 | 22 | 73 | 1.6 | 8.0 | 0.00 | 0.00 | 0.00 | 52 | 1015.4 |
| 20260906001005 | 22 | 309 | 1.6 | 9.7 | 0.00 | 0.00 | 0.00 | 53 | 1015.3 |
| 20260906000505 | 22 | 31 | 3.2 | 8.0 | 0.00 | 0.00 | 0.00 | 52 | 1015.3 |
| 20260906000005 | 22 | 172 | 4.8 | 8.0 | 0.00 | 0.00 | 0.00 | 53 | 1015.4 |
| 20260905235005 | 22 | 189 | 8.0 | 14.5 | 0.00 | 0.00 | 0.00 | 51 | 1015.4 |
| 20260905234505 | 22 | 79 | 3.2 | 3.2 | 0.00 | 0.00 | 0.00 | 51 | 1015.4 |
| 20260905234005 | 22 | 204 | 4.8 | 11.3 | 0.00 | 0.00 | 0.00 | 49 | 1015.5 |
| 20260905233505 | 22 | 196 | 4.8 | 14.5 | 0.00 | 0.00 | 0.00 | 49 | 1015.5 |
| 20260905233005 | 22 | 191 | 9.7 | 16.1 | 0.00 | 0.00 | 0.00 | 49 | 1015.5 |
| 20260905232005 | 22 | 237 | 6.4 | 19.3 | 0.00 | 0.00 | 0.00 | 50 | 1015.5 |
| 20260905231505 | 22 | 122 | 8.0 | 14.5 | 0.00 | 0.00 | 0.00 | 49 | 1015.5 |
| 20260905231005 | 22 | 185 | 9.7 | 16.1 | 0.00 | 0.00 | 0.00 | 52 | 1015.6 |
| 20260905230505 | 22 | 232 | 4.8 | 14.5 | 0.00 | 0.00 | 0.00 | 52 | 1015.5 |
| 20260905224506 | 22 | 205 | 6.4 | 11.3 | 0.00 | 0.00 | 0.00 | 53 | 1015.8 |
| 20260905224006 | 21 | 209 | 4.8 | 9.7 | 0.00 | 0.00 | 0.00 | 53 | 1015.8 |
| 20260905223505 | 21 | 246 | 4.8 | 14.5 | 0.00 | 0.00 | 0.00 | 54 | 1015.8 |
| 20260905223005 | 21 | 239 | 4.8 | 11.3 | 0.00 | 0.00 | 0.00 | 57 | 1015.8 |
| 20260905222505 | 21 | 212 | 8.0 | 14.5 | 0.00 | 0.00 | 0.00 | 57 | 1015.9 |
| 20260905222005 | 21 | 261 | 8.0 | 12.9 | 0.00 | 0.00 | 0.00 | 55 | 1015.9 |
| 20260905221505 | 21 | 234 | 6.4 | 11.3 | 0.00 | 0.00 | 0.00 | 56 | 1016.0 |
| 20260905221005 | 21 | 265 | 4.8 | 8.0 | 0.00 | 0.00 | 0.00 | 55 | 1016.1 |
| 20260905220005 | 21 | 152 | 8.0 | 12.9 | 0.00 | 0.00 | 0.00 | 56 | 1016.1 |
| 20260905215505 | 21 | 210 | 4.8 | 8.0 | 0.00 | 0.00 | 0.00 | 55 | 1016.1 |
| 20260905215005 | 21 | 235 | 6.4 | 14.5 | 0.00 | 0.00 | 0.00 | 55 | 1016.3 |
| 20260905214005 | 21 | 139 | 11.3 | 19.3 | 0.00 | 0.00 | 0.00 | 56 | 1016.3 |
| 20260905213505 | 21 | 201 | 6.4 | 12.9 | 0.00 | 0.00 | 0.00 | 58 | 1016.3 |
| 20260905213005 | 21 | 152 | 4.8 | 9.7 | 0.00 | 0.00 | 0.00 | 59 | 1016.3 |
| 20260905212505 | 21 | 193 | 6.4 | 11.3 | 0.00 | 0.03 | 0.00 | 59 | 1016.4 |
| 20260905211506 | 20 | 180 | 4.8 | 12.9 | 0.00 | 0.03 | 0.00 | 61 | 1016.4 |
| 20260905211005 | 20 | 202 | 4.8 | 11.3 | 0.00 | 0.03 | 0.00 | 63 | 1016.5 |
| 20260905210505 | 20 | 168 | 8.0 | 12.9 | 0.00 | 0.03 | 0.00 | 62 | 1016.6 |
| 20260905210005 | 20 | 191 | 4.8 | 9.7 | 0.00 | 0.03 | 0.00 | 65 | 1016.6 |
| 20260905205505 | 19 | 308 | 3.2 | 4.8 | 0.00 | 0.05 | 0.00 | 68 | 1016.7 |
| 20260905204505 | 19 | 124 | 4.8 | 9.7 | 0.00 | 0.05 | 0.00 | 65 | 1016.8 |
| 20260905204005 | 18 | 143 | 4.8 | 9.7 | 0.00 | 0.05 | 0.00 | 68 | 1016.8 |
| 20260905203005 | 18 | 247 | 3.2 | 8.0 | 0.00 | 0.05 | 0.00 | 68 | 1016.9 |
| 20260905202505 | 17 | 215 | 4.8 | 8.0 | 0.00 | 0.05 | 0.00 | 70 | 1017.0 |
| 20260905202004 | 17 | 245 | 4.8 | 11.3 | 0.00 | 0.05 | 0.00 | 69 | 1016.9 |
| 20260905201505 | 17 | 228 | 4.8 | 11.3 | 0.00 | 0.05 | 0.00 | 71 | 1017.0 |